GW0963 Weather Reports


time (UTC)temp
F
wind
direction
speed
knots
gust
knots
rain 1hr
in
rain 24hr
in
rain mn
in
humidity
%
barometer
mb
20260505171014 46 286 9.6 14.8 0.00 0.00 0.00 42 1007.0
20260505170510 46 285 11.3 25.2 0.00 0.00 0.00 41 1007.0
20260505170006 45 275 7.8 19.1 0.00 0.00 0.00 42 1006.9
20260505165502 45 266 11.3 20.9 0.00 0.00 0.00 42 1006.8
20260505164958 46 319 7.8 20.0 0.00 0.00 0.00 42 1006.9
20260505164454 45 281 9.6 17.4 0.00 0.00 0.00 43 1006.8
20260505163952 45 328 6.1 17.4 0.00 0.00 0.00 43 1006.9
20260505163451 46 298 7.0 16.5 0.00 0.00 0.00 43 1006.8
20260505162950 46 252 6.1 16.5 0.00 0.00 0.00 44 1006.5
20260505162445 45 334 2.6 13.0 0.00 0.00 0.00 46 1006.7
20260505161942 45 305 9.6 15.6 0.00 0.00 0.00 45 1006.7
20260505161438 45 313 4.3 18.2 0.00 0.00 0.00 42 1006.8
20260505160936 46 272 9.6 17.4 0.00 0.00 0.00 43 1006.7
20260505160434 44 283 6.1 13.9 0.00 0.00 0.00 47 1006.6
20260505152910 44 301 13.0 14.8 0.00 0.00 0.00 49 1006.7
20260505152408 44 244 7.8 17.4 0.00 0.00 0.00 49 1006.6
20260505151907 44 225 6.1 20.9 0.00 0.00 0.00 51 1006.6
20260505151404 44 307 3.5 20.0 0.00 0.00 0.00 49 1006.4
20260505150901 44 309 4.3 19.1 0.00 0.00 0.00 49 1006.4
20260505150358 45 272 13.0 16.5 0.00 0.00 0.00 49 1006.3
20260505140323 43 278 9.6 14.8 0.00 0.00 0.00 52 1006.3
20260505130246 41 308 4.3 13.0 0.00 0.00 0.00 59 1005.5
20260505124737 41 293 4.3 17.4 0.00 0.00 0.00 62 1005.5
20260505124233 40 297 5.2 16.5 0.00 0.00 0.00 63 1005.5
20260505123729 41 290 9.6 11.3 0.00 0.00 0.00 65 1005.3
20260505123226 40 278 5.2 13.9 0.00 0.00 0.00 67 1005.3
20260505122722 40 287 12.2 12.2 0.00 0.00 0.00 66 1005.2
20260505122220 40 317 4.3 10.4 0.00 0.00 0.00 67 1005.1
20260505121716 39 285 2.6 9.6 0.00 0.00 0.00 66 1005.3
20260505121213 39 298 7.0 7.8 0.00 0.00 0.00 67 1005.1
20260505120709 39 314 1.7 7.0 0.00 0.00 0.00 68 1005.0
20260505120205 39 276 3.5 7.8 0.00 0.00 0.00 68 1005.0
20260505115659 38 275 6.1 12.2 0.00 0.00 0.00 68 1005.3
20260505115157 39 326 3.5 7.8 0.00 0.00 0.00 68 1005.0
20260505114654 38 268 9.6 9.6 0.00 0.00 0.00 68 1005.0
20260505114150 38 240 4.3 7.8 0.00 0.00 0.00 69 1005.0
20260505113647 38 272 6.1 8.7 0.00 0.00 0.00 70 1004.8
20260505113143 37 284 4.3 10.4 0.00 0.00 0.00 71 1004.9
20260505112640 37 265 4.3 7.8 0.00 0.00 0.00 71 1005.0
20260505112138 37 276 1.7 5.2 0.00 0.00 0.00 71 1004.8
20260505111637 37 226 5.2 6.1 0.00 0.00 0.00 71 1004.7
20260505111133 37 265 4.3 7.8 0.00 0.00 0.00 71 1004.7
20260505110629 37 279 3.5 5.2 0.00 0.00 0.00 71 1004.6
20260505110127 37 207 1.7 6.1 0.00 0.00 0.00 71 1004.6
20260505102102 37 271 2.6 4.3 0.00 0.00 0.00 69 1003.8
20260505101601 37 273 3.5 7.0 0.00 0.00 0.00 69 1003.8
20260505101057 37 291 3.5 7.0 0.00 0.00 0.00 69 1004.0
20260505100553 37 287 5.2 7.0 0.00 0.00 0.00 69 1004.0
20260505100050 37 307 1.7 6.1 0.00 0.00 0.00 68 1004.0
20260505095547 37 281 1.7 6.1 0.00 0.00 0.00 68 1003.9
20260505095043 37 276 3.5 5.2 0.00 0.00 0.00 68 1003.9
20260505094540 37 313 3.5 4.3 0.00 0.00 0.00 68 1003.9
20260505094036 37 261 3.5 4.3 0.00 0.00 0.00 68 1003.9
20260505093533 37 285 3.5 6.1 0.00 0.00 0.00 67 1003.7
20260505093030 37 271 2.6 5.2 0.00 0.00 0.00 67 1003.5
20260505092527 38 211 0.9 4.3 0.00 0.00 0.00 67 1003.3
20260505092026 38 264 3.5 6.1 0.00 0.00 0.00 66 1003.3
20260505091522 38 262 3.5 5.2 0.00 0.00 0.00 66 1003.3
20260505091020 38 282 2.6 4.3 0.00 0.00 0.00 65 1003.2
20260505090518 38 295 1.7 4.3 0.00 0.00 0.00 65 1003.2
20260505090016 38 263 2.6 4.3 0.00 0.00 0.00 64 1003.0
20260505085513 38 272 1.7 4.3 0.00 0.00 0.00 64 1003.1
20260505085011 39 274 1.7 4.3 0.00 0.00 0.00 63 1003.0
20260505084509 39 248 2.6 4.3 0.00 0.00 0.00 62 1002.7
20260505084007 39 298 2.6 5.2 0.00 0.00 0.00 61 1002.7
20260505083504 39 229 1.7 4.3 0.00 0.00 0.00 61 1002.6
20260505083000 39 298 3.5 4.3 0.00 0.00 0.00 61 1002.5
20260505082456 39 275 3.5 5.2 0.00 0.00 0.00 60 1002.6
20260505081953 39 269 4.3 6.1 0.00 0.00 0.00 60 1002.7
20260505081450 39 244 1.7 4.3 0.00 0.00 0.00 60 1002.8
20260505080946 40 240 0.9 6.1 0.00 0.00 0.00 59 1002.6
20260505080442 40 257 3.5 6.1 0.00 0.00 0.00 59 1002.4
20260505075938 40 281 2.6 5.2 0.00 0.00 0.00 58 1002.6
20260505075435 40 292 1.7 4.3 0.00 0.00 0.00 58 1002.4
20260505074933 40 281 2.6 3.5 0.00 0.00 0.00 58 1002.6
20260505074430 40 295 3.5 4.3 0.00 0.00 0.00 57 1002.5
20260505073927 40 281 2.6 4.3 0.00 0.00 0.00 57 1002.6
20260505073425 40 289 2.6 5.2 0.00 0.00 0.00 57 1002.6
20260505072921 41 266 2.6 5.2 0.00 0.00 0.00 57 1002.7
20260505072418 41 284 4.3 7.0 0.00 0.00 0.00 56 1002.7
20260505071914 41 273 2.6 6.1 0.00 0.00 0.00 56 1002.6
20260505071410 41 286 0.9 4.3 0.00 0.00 0.00 56 1002.5
20260505070908 41 303 2.6 4.3 0.00 0.00 0.00 55 1002.7
20260505070404 41 274 3.5 4.3 0.00 0.00 0.00 55 1002.8
20260505065900 41 331 0.0 6.1 0.00 0.00 0.00 54 1002.7
20260505065357 41 308 2.6 5.2 0.00 0.00 0.00 54 1002.8
20260505064854 41 300 1.7 2.6 0.00 0.00 0.00 54 1002.6
20260505064351 42 314 0.9 3.5 0.00 0.00 0.00 53 1002.7
20260505063850 42 330 2.6 7.0 0.00 0.00 0.00 53 1003.1
20260505063345 42 312 2.6 7.8 0.00 0.00 0.00 52 1002.7
20260505062842 42 304 2.6 4.3 0.00 0.00 0.00 51 1003.1
20260505062339 42 285 2.6 6.1 0.00 0.00 0.00 51 1003.0
20260505061836 43 341 1.7 6.1 0.00 0.00 0.00 50 1003.0
20260505061334 43 324 2.6 8.7 0.00 0.00 0.00 50 1003.0
20260505060831 43 301 7.0 11.3 0.00 0.00 0.00 50 1003.0
20260505060328 43 317 3.5 7.8 0.00 0.00 0.00 49 1002.7
20260505055824 43 324 3.5 11.3 0.00 0.00 0.00 49 1003.0
20260505055320 43 300 6.1 7.0 0.00 0.00 0.00 49 1002.7
20260505054817 44 308 3.5 10.4 0.00 0.00 0.00 49 1002.8
20260505054315 44 320 8.7 9.6 0.00 0.00 0.00 49 1003.0
20260505053813 44 304 9.6 9.6 0.00 0.00 0.00 49 1002.8
20260505053309 44 34 1.7 8.7 0.00 0.00 0.00 49 1002.7
20260505052806 44 334 3.5 15.6 0.00 0.00 0.00 48 1002.6
20260505052304 44 322 3.5 10.4 0.00 0.00 0.00 49 1002.7
20260505051800 44 297 6.1 20.0 0.00 0.00 0.00 48 1002.7
20260505051258 44 323 7.8 10.4 0.00 0.00 0.00 49 1002.6
20260505050755 44 295 4.3 16.5 0.00 0.00 0.00 49 1002.6
20260505050254 44 38 0.0 7.8 0.00 0.00 0.00 51 1002.6
20260505041729 46 284 4.3 8.7 0.00 0.00 0.00 52 1001.6
20260505041226 46 331 6.1 11.3 0.00 0.00 0.00 51 1001.6
20260505040723 46 357 2.6 14.8 0.00 0.00 0.00 51 1001.5
20260505040220 47 331 5.2 17.4 0.00 0.00 0.00 50 1001.5
20260505035717 47 312 7.8 18.2 0.00 0.00 0.00 49 1001.4
20260505035213 47 349 3.5 11.3 0.00 0.00 0.00 50 1001.5
20260505034710 47 337 5.2 21.7 0.00 0.00 0.00 49 1001.5
20260505034207 47 293 4.3 11.3 0.00 0.00 0.00 50 1001.3
20260505033703 48 11 5.2 11.3 0.00 0.00 0.00 50 1001.2
20260505033202 48 331 4.3 19.1 0.00 0.00 0.00 49 1001.0
20260505032659 48 309 4.3 24.3 0.00 0.00 0.00 49 1001.1
20260505032155 48 315 4.3 18.2 0.00 0.00 0.00 48 1001.0
20260505031653 49 311 13.0 13.0 0.00 0.00 0.00 48 1000.9
20260505031149 49 308 4.3 14.8 0.00 0.00 0.00 47 1000.7
20260505030646 49 353 5.2 19.1 0.00 0.00 0.00 46 1000.6
20260505030141 49 332 9.6 20.9 0.00 0.00 0.00 46 1000.5
20260505025638 50 286 5.2 17.4 0.00 0.00 0.00 46 1000.4
20260505025136 50 290 6.1 13.9 0.00 0.00 0.00 45 1000.3
20260505024634 50 350 3.5 18.2 0.00 0.00 0.00 45 1000.3
20260505024131 50 319 7.8 27.8 0.00 0.00 0.00 44 1000.2
20260505023628 50 286 11.3 18.2 0.00 0.00 0.00 44 1000.1
20260505023125 51 317 3.5 14.8 0.00 0.00 0.00 44 1000.1
20260505022623 51 322 3.5 19.1 0.00 0.00 0.00 43 999.8
20260505022119 51 278 5.2 13.0 0.00 0.00 0.00 43 999.8
20260505021616 51 300 4.3 10.4 0.00 0.00 0.00 43 999.8
20260505021113 52 283 6.1 21.7 0.00 0.00 0.00 42 999.7
20260505020608 52 321 9.6 13.9 0.00 0.00 0.00 43 999.7
20260505020105 52 320 7.8 19.1 0.00 0.00 0.00 43 999.6
20260505015602 52 260 3.5 19.1 0.00 0.00 0.00 43 999.5
20260505015058 53 335 7.8 26.9 0.00 0.00 0.00 43 999.7
20260505014555 53 306 13.0 15.6 0.00 0.00 0.00 44 999.4
20260505014052 54 296 9.6 15.6 0.00 0.00 0.00 44 999.0
20260505013549 54 323 7.8 17.4 0.00 0.00 0.00 43 998.9
20260505013047 54 286 8.7 19.1 0.00 0.00 0.00 43 998.9
20260505012545 54 292 7.0 13.0 0.00 0.00 0.00 43 998.8
20260505012042 55 325 0.9 16.5 0.00 0.00 0.00 43 998.6
20260505011537 55 294 7.0 19.1 0.00 0.00 0.00 42 998.6
20260505011035 55 308 7.0 22.6 0.00 0.00 0.00 42 998.5
20260505010530 55 292 17.4 19.1 0.00 0.00 0.00 42 998.5
20260505010027 56 312 4.3 14.8 0.00 0.00 0.00 42 998.3
20260505005523 56 295 7.0 20.9 0.00 0.00 0.00 41 998.0
20260505005021 56 280 7.0 13.0 0.00 0.00 0.00 41 998.1
20260505004517 56 304 8.7 14.8 0.00 0.00 0.00 41 998.1
20260505004014 57 322 5.2 19.1 0.00 0.00 0.00 41 998.0
20260505003511 57 330 23.5 24.3 0.00 0.00 0.00 41 997.8
20260505003009 58 322 3.5 20.0 0.00 0.00 0.00 41 997.7
20260505002503 58 277 7.8 24.3 0.00 0.00 0.00 41 997.6
20260505002002 58 300 10.4 21.7 0.00 0.00 0.00 40 997.4
20260505001459 59 262 9.6 25.2 0.00 0.00 0.00 40 997.3
20260505000956 59 279 10.4 25.2 0.00 0.00 0.00 39 997.1
20260505000454 60 313 9.6 20.0 0.00 0.00 0.00 39 997.0
20260504235951 60 332 3.5 11.3 0.00 0.00 0.00 40 997.0
20260504235448 60 255 7.8 22.6 0.00 0.00 0.00 39 997.0
20260504234944 60 292 12.2 23.5 0.00 0.00 0.00 39 997.0
20260504234442 60 290 16.5 21.7 0.00 0.00 0.00 39 996.8
20260504233938 60 284 11.3 33.0 0.00 0.00 0.00 39 996.7
20260504233434 61 305 5.2 21.7 0.00 0.00 0.00 37 996.6
20260504232931 61 256 6.1 18.2 0.00 0.00 0.00 36 996.9
20260504232428 62 268 12.2 17.4 0.00 0.00 0.00 34 996.7
20260504231925 62 282 9.6 19.1 0.00 0.00 0.00 32 996.8
20260504231421 62 236 23.5 26.1 0.00 0.00 0.00 29 996.7
20260504230918 62 280 14.8 31.3 0.00 0.00 0.00 28 996.9
20260504230415 63 256 11.3 20.9 0.00 0.00 0.00 28 996.5
20260504225914 63 280 16.5 26.1 0.00 0.00 0.00 32 996.6
20260504225410 63 281 20.9 20.9 0.00 0.00 0.00 34 996.4
20260504224908 63 275 8.7 20.9 0.00 0.00 0.00 37 996.3
20260504224404 63 265 11.3 22.6 0.00 0.00 0.00 37 996.3
20260504223901 63 246 9.6 21.7 0.00 0.00 0.00 37 996.2
20260504223356 63 268 11.3 19.1 0.00 0.00 0.00 37 996.3
20260504222853 63 262 20.9 27.8 0.00 0.00 0.00 36 996.1
20260504222350 63 251 13.0 29.5 0.00 0.00 0.00 36 995.9
20260504221848 64 283 13.9 26.9 0.00 0.00 0.00 35 995.8
20260504221345 64 293 14.8 20.9 0.00 0.00 0.00 36 995.7
20260504220842 64 256 14.8 26.1 0.00 0.00 0.00 35 995.9
20260504220338 64 261 11.3 25.2 0.00 0.00 0.00 35 995.9
20260504215836 64 294 11.3 24.3 0.00 0.00 0.00 35 995.7
20260504215332 65 246 5.2 16.5 0.00 0.00 0.00 34 995.6
20260504214828 64 256 13.0 20.9 0.00 0.00 0.00 33 995.3
20260504214325 65 280 19.1 23.5 0.00 0.00 0.00 33 995.4
20260504213822 65 246 12.2 19.1 0.00 0.00 0.00 34 995.6
20260504213318 65 271 7.8 20.0 0.00 0.00 0.00 35 995.4
20260504212815 65 302 6.1 17.4 0.00 0.00 0.00 35 995.3
20260504212311 65 295 5.2 20.0 0.00 0.00 0.00 34 995.4
20260504211809 66 285 12.2 20.9 0.00 0.00 0.00 33 995.4
20260504211305 65 241 14.8 20.0 0.00 0.00 0.00 33 995.5
20260504210803 65 262 6.1 18.2 0.00 0.00 0.00 33 995.3
20260504210300 65 289 6.1 30.4 0.00 0.00 0.00 33 995.4
20260504205757 66 268 10.4 22.6 0.00 0.00 0.00 32 995.3
20260504205254 66 296 9.6 18.2 0.00 0.00 0.00 31 995.4
20260504204752 65 234 7.0 20.9 0.00 0.00 0.00 33 995.4
20260504204250 66 264 13.0 21.7 0.00 0.00 0.00 31 995.4
20260504203750 66 289 16.5 28.7 0.00 0.00 0.00 31 995.3
20260504203246 67 283 7.0 21.7 0.00 0.00 0.00 30 995.2
20260504202741 66 269 18.2 33.0 0.00 0.00 0.00 31 995.2
20260504202239 66 278 7.8 20.9 0.00 0.00 0.00 30 995.1
20260504201736 67 242 7.8 22.6 0.00 0.00 0.00 31 995.0
20260504201233 67 252 6.1 17.4 0.00 0.00 0.00 30 995.3
20260504200731 66 260 11.3 35.6 0.00 0.00 0.00 30 995.2
20260504200226 67 257 7.8 19.1 0.00 0.00 0.00 30 994.9
20260504195723 66 280 6.1 24.3 0.00 0.00 0.00 30 995.0
20260504195219 66 252 11.3 26.9 0.00 0.00 0.00 30 995.0
20260504194716 67 290 11.3 17.4 0.00 0.00 0.00 28 994.9
20260504194212 68 248 16.5 25.2 0.00 0.00 0.00 27 994.9
20260504193709 68 297 20.0 32.2 0.00 0.00 0.00 26 994.7
20260504193206 68 230 16.5 26.9 0.00 0.00 0.00 26 994.8
20260504192704 68 286 20.0 21.7 0.00 0.00 0.00 26 994.7
20260504192202 68 275 17.4 29.5 0.00 0.00 0.00 24 994.6
20260504191701 68 250 13.0 26.1 0.00 0.00 0.00 21 994.8
20260504191156 68 271 14.8 24.3 0.00 0.00 0.00 19 994.7
20260504190652 69 256 7.0 20.9 0.00 0.00 0.00 25 994.4
20260504190149 68 262 17.4 25.2 0.00 0.00 0.00 29 994.4
20260504185645 68 295 5.2 34.8 0.00 0.00 0.00 31 994.2
20260504185142 68 207 10.4 18.2 0.00 0.00 0.00 33 994.1
20260504184638 67 254 15.6 21.7 0.00 0.00 0.00 33 994.4
20260504184133 68 246 9.6 24.3 0.00 0.00 0.00 33 994.4
20260504183630 68 271 12.2 20.0 0.00 0.00 0.00 30 994.1
20260504183128 69 277 27.8 30.4 0.00 0.00 0.00 30 993.9
20260504182625 69 265 7.8 27.8 0.00 0.00 0.00 33 994.0
20260504182123 68 240 11.3 22.6 0.00 0.00 0.00 36 994.2
20260504181620 67 292 13.0 26.1 0.00 0.00 0.00 36 994.1
20260504181118 67 300 18.2 26.1 0.00 0.00 0.00 37 994.2
20260504180617 68 280 3.5 20.0 0.00 0.00 0.00 38 994.1
20260504180115 68 301 11.3 22.6 0.00 0.00 0.00 38 994.0
20260504175612 67 277 7.0 28.7 0.00 0.00 0.00 38 994.0
20260504175109 67 290 13.0 30.4 0.00 0.00 0.00 36 994.4
20260504174607 68 253 19.1 26.9 0.00 0.00 0.00 34 994.0
20260504174103 67 290 15.6 26.9 0.00 0.00 0.00 37 994.2
20260504173600 68 218 11.3 23.5 0.00 0.00 0.00 37 993.9
20260504173058 67 237 10.4 25.2 0.00 0.00 0.00 38 994.1
20260504172554 68 279 9.6 25.2 0.00 0.00 0.00 38 994.1
20260504172050 68 244 7.0 23.5 0.00 0.00 0.00 38 994.0
20260504171547 68 277 16.5 20.9 0.00 0.00 0.00 38 994.1